| time (UTC) | temp F | wind direction | speed knots | gust knots | rain 1hr in | rain 24hr in | rain mn in | humidity % | barometer mb |
| 20260507122705 | 68 | 258 | 3.5 | 7.8 | 0.00 | 0.05 | 0.04 | 58 | 1016.1 |
| 20260507121804 | 68 | 328 | 2.6 | 7.8 | 0.00 | 0.05 | 0.04 | 61 | 1016.2 |
| 20260507120904 | 67 | 307 | 2.6 | 7.0 | 0.00 | 0.05 | 0.04 | 69 | 1016.3 |
| 20260507120005 | 68 | 312 | 2.6 | 5.2 | 0.00 | 0.05 | 0.04 | 67 | 1016.1 |
| 20260507115403 | 67 | 310 | 2.6 | 6.1 | 0.00 | 0.05 | 0.04 | 67 | 1016.1 |
| 20260507114525 | 67 | 320 | 2.6 | 6.1 | 0.00 | 0.05 | 0.04 | 69 | 1016.5 |
| 20260507113626 | 66 | 327 | 2.6 | 8.7 | 0.00 | 0.05 | 0.04 | 71 | 1016.3 |
| 20260507112704 | 67 | 355 | 1.7 | 4.3 | 0.00 | 0.05 | 0.04 | 70 | 1016.5 |
| 20260507111825 | 66 | 324 | 3.5 | 7.8 | 0.00 | 0.05 | 0.04 | 72 | 1016.7 |
| 20260507110904 | 65 | 332 | 2.6 | 7.8 | 0.00 | 0.05 | 0.04 | 73 | 1016.6 |
| 20260507110004 | 65 | 337 | 2.6 | 7.0 | 0.00 | 0.05 | 0.04 | 73 | 1016.6 |
| 20260507104505 | 65 | 333 | 1.7 | 6.1 | 0.00 | 0.05 | 0.04 | 74 | 1016.7 |
| 20260507103604 | 64 | 334 | 2.6 | 7.8 | 0.00 | 0.05 | 0.04 | 74 | 1016.6 |
| 20260507102745 | 65 | 323 | 2.6 | 7.8 | 0.00 | 0.05 | 0.04 | 73 | 1016.8 |
| 20260507101804 | 64 | 340 | 2.6 | 5.2 | 0.00 | 0.05 | 0.04 | 74 | 1017.0 |
| 20260507100903 | 64 | 359 | 0.9 | 5.2 | 0.00 | 0.05 | 0.04 | 73 | 1017.2 |
| 20260507100004 | 64 | 337 | 2.6 | 7.8 | 0.00 | 0.05 | 0.04 | 75 | 1017.0 |
| 20260507095404 | 62 | 332 | 3.5 | 7.8 | 0.00 | 0.05 | 0.04 | 77 | 1016.9 |
| 20260507094504 | 62 | 324 | 2.6 | 7.8 | 0.00 | 0.05 | 0.04 | 77 | 1017.0 |
| 20260507093605 | 62 | 324 | 3.5 | 6.1 | 0.00 | 0.05 | 0.04 | 79 | 1017.0 |
| 20260507092703 | 62 | 322 | 2.6 | 6.1 | 0.00 | 0.05 | 0.04 | 78 | 1017.0 |
| 20260507091803 | 62 | 311 | 2.6 | 7.0 | 0.00 | 0.05 | 0.04 | 79 | 1016.9 |
| 20260507090925 | 61 | 330 | 3.5 | 7.0 | 0.00 | 0.05 | 0.04 | 79 | 1016.8 |
| 20260507090027 | 62 | 310 | 2.6 | 7.0 | 0.00 | 0.05 | 0.04 | 78 | 1016.7 |
| 20260507085430 | 61 | 298 | 3.5 | 7.0 | 0.00 | 0.05 | 0.04 | 79 | 1016.8 |
| 20260507084504 | 61 | 330 | 2.6 | 7.0 | 0.00 | 0.05 | 0.04 | 79 | 1016.8 |
| 20260507083603 | 60 | 333 | 2.6 | 10.4 | 0.00 | 0.05 | 0.04 | 80 | 1016.7 |
| 20260507082703 | 60 | 336 | 1.7 | 6.1 | 0.00 | 0.05 | 0.04 | 79 | 1016.8 |
| 20260507081805 | 59 | 348 | 2.6 | 7.8 | 0.00 | 0.05 | 0.04 | 81 | 1016.8 |
| 20260507080904 | 60 | 345 | 1.7 | 5.2 | 0.00 | 0.05 | 0.04 | 78 | 1016.6 |
| 20260507080005 | 60 | 25 | 1.7 | 4.3 | 0.00 | 0.05 | 0.04 | 80 | 1017.0 |
| 20260507075403 | 61 | 356 | 1.7 | 3.5 | 0.00 | 0.05 | 0.04 | 79 | 1017.0 |
| 20260507074503 | 61 | 75 | 0.9 | 3.5 | 0.00 | 0.05 | 0.04 | 79 | 1016.8 |
| 20260507073603 | 61 | 339 | 0.9 | 2.6 | 0.00 | 0.05 | 0.04 | 79 | 1017.0 |
| 20260507072703 | 60 | 111 | 1.7 | 4.3 | 0.00 | 0.05 | 0.04 | 78 | 1017.0 |
| 20260507071803 | 60 | 163 | 1.7 | 4.3 | 0.00 | 0.05 | 0.04 | 78 | 1016.9 |
| 20260507070903 | 58 | 253 | 0.9 | 2.6 | 0.00 | 0.05 | 0.04 | 82 | 1017.4 |
| 20260507070009 | 58 | 241 | 0.9 | 3.5 | 0.00 | 0.05 | 0.04 | 84 | 1017.4 |
| 20260507065403 | 58 | 189 | 0.9 | 2.6 | 0.00 | 0.05 | 0.04 | 82 | 1017.1 |
| 20260507064503 | 58 | 129 | 1.7 | 4.3 | 0.00 | 0.05 | 0.04 | 83 | 1016.9 |
| 20260507063625 | 58 | 134 | 2.6 | 4.3 | 0.00 | 0.05 | 0.04 | 82 | 1016.8 |
| 20260507062703 | 59 | 121 | 2.6 | 5.2 | 0.00 | 0.06 | 0.04 | 82 | 1016.8 |
| 20260507061803 | 58 | 115 | 2.6 | 4.3 | 0.00 | 0.06 | 0.04 | 82 | 1016.6 |
| 20260507060903 | 58 | 111 | 1.7 | 4.3 | 0.00 | 0.06 | 0.04 | 84 | 1016.8 |
| 20260507060003 | 57 | 125 | 2.6 | 4.3 | 0.00 | 0.06 | 0.04 | 85 | 1016.4 |
| 20260507055403 | 57 | 125 | 2.6 | 5.2 | 0.00 | 0.06 | 0.04 | 85 | 1016.6 |
| 20260507054506 | 56 | 111 | 2.6 | 5.2 | 0.00 | 0.06 | 0.04 | 87 | 1016.6 |
| 20260507053604 | 55 | 102 | 2.6 | 5.2 | 0.00 | 0.06 | 0.04 | 89 | 1016.7 |
| 20260507052729 | 55 | 97 | 3.5 | 6.1 | 0.00 | 0.06 | 0.04 | 89 | 1016.5 |
| 20260507051805 | 54 | 97 | 4.3 | 7.0 | 0.00 | 0.06 | 0.04 | 90 | 1016.4 |
| 20260507050907 | 54 | 95 | 4.3 | 5.2 | 0.00 | 0.07 | 0.04 | 91 | 1016.6 |
| 20260507050006 | 54 | 103 | 3.5 | 7.8 | 0.00 | 0.07 | 0.04 | 92 | 1016.4 |
| 20260507045404 | 54 | 109 | 4.3 | 7.8 | 0.00 | 0.07 | 0.04 | 93 | 1016.5 |
| 20260507044505 | 54 | 116 | 4.3 | 7.8 | 0.00 | 0.07 | 0.04 | 93 | 1016.4 |
| 20260507043605 | 54 | 113 | 4.3 | 7.8 | 0.01 | 0.08 | 0.04 | 94 | 1016.2 |
| 20260507042704 | 53 | 117 | 5.2 | 7.0 | 0.01 | 0.08 | 0.04 | 94 | 1016.2 |
| 20260507041805 | 53 | 115 | 4.3 | 9.6 | 0.01 | 0.08 | 0.04 | 94 | 1016.3 |
| 20260507040911 | 54 | 121 | 4.3 | 8.7 | 0.01 | 0.08 | 0.04 | 94 | 1016.2 |
| 20260507040004 | 54 | 116 | 4.3 | 7.8 | 0.02 | 0.08 | 0.04 | 94 | 1016.2 |
| 20260507035404 | 54 | 119 | 3.5 | 6.1 | 0.02 | 0.08 | 0.04 | 94 | 1016.4 |
| 20260507034505 | 54 | 120 | 3.5 | 7.0 | 0.02 | 0.08 | 0.04 | 93 | 1016.2 |
| 20260507033604 | 54 | 118 | 4.3 | 7.8 | 0.02 | 0.07 | 0.04 | 93 | 1016.3 |
| 20260507032704 | 54 | 103 | 5.2 | 9.6 | 0.02 | 0.07 | 0.04 | 93 | 1016.0 |
| 20260507031806 | 54 | 109 | 4.3 | 7.8 | 0.02 | 0.07 | 0.04 | 93 | 1016.0 |
| 20260507030906 | 54 | 115 | 5.2 | 8.7 | 0.02 | 0.07 | 0.03 | 92 | 1016.1 |
| 20260507030005 | 54 | 98 | 6.1 | 8.7 | 0.01 | 0.07 | 0.03 | 92 | 1015.9 |
| 20260507025426 | 54 | 100 | 5.2 | 8.7 | 0.01 | 0.06 | 0.02 | 91 | 1016.2 |
| 20260507024525 | 53 | 107 | 4.3 | 7.8 | 0.00 | 0.06 | 0.02 | 91 | 1016.2 |
| 20260507023607 | 54 | 113 | 4.3 | 8.7 | 0.01 | 0.06 | 0.02 | 90 | 1016.3 |
| 20260507022704 | 54 | 137 | 3.5 | 8.7 | 0.01 | 0.06 | 0.02 | 90 | 1016.2 |
| 20260507021805 | 54 | 128 | 2.6 | 4.3 | 0.01 | 0.06 | 0.02 | 90 | 1016.1 |
| 20260507020905 | 54 | 115 | 3.5 | 7.8 | 0.01 | 0.06 | 0.02 | 89 | 1016.2 |
| 20260507020004 | 54 | 112 | 4.3 | 7.8 | 0.01 | 0.06 | 0.02 | 88 | 1016.2 |
| 20260507015405 | 54 | 106 | 4.3 | 9.6 | 0.01 | 0.05 | 0.01 | 88 | 1015.9 |
| 20260507014525 | 55 | 99 | 5.2 | 9.6 | 0.01 | 0.05 | 0.01 | 86 | 1016.0 |
| 20260507013607 | 55 | 110 | 4.3 | 7.8 | 0.00 | 0.05 | 0.01 | 85 | 1015.9 |
| 20260507012704 | 55 | 109 | 3.5 | 8.7 | 0.00 | 0.05 | 0.01 | 84 | 1016.0 |
| 20260507011825 | 55 | 100 | 2.6 | 7.8 | 0.00 | 0.05 | 0.01 | 87 | 1015.9 |
| 20260507010904 | 55 | 97 | 4.3 | 8.7 | 0.00 | 0.05 | 0.01 | 87 | 1015.9 |
| 20260507010008 | 54 | 90 | 4.3 | 8.7 | 0.00 | 0.04 | 0.00 | 89 | 1016.1 |
| 20260507005425 | 54 | 91 | 4.3 | 8.7 | 0.00 | 0.04 | 0.00 | 90 | 1016.2 |
| 20260507004505 | 54 | 115 | 4.3 | 10.4 | 0.00 | 0.04 | 0.00 | 92 | 1016.1 |
| 20260507003605 | 54 | 105 | 4.3 | 10.4 | 0.00 | 0.04 | 0.00 | 93 | 1016.2 |
| 20260507002704 | 54 | 106 | 4.3 | 9.6 | 0.00 | 0.04 | 0.00 | 94 | 1016.3 |
| 20260507001804 | 53 | 92 | 4.3 | 7.8 | 0.00 | 0.04 | 0.00 | 94 | 1016.1 |
| 20260507000904 | 53 | 110 | 5.2 | 10.4 | 0.00 | 0.04 | 0.00 | 94 | 1016.1 |
| 20260507000004 | 53 | 116 | 5.2 | 10.4 | 0.00 | 0.04 | 0.00 | 94 | 1016.2 |
| 20260506235404 | 53 | 120 | 5.2 | 12.2 | 0.00 | 0.04 | 0.00 | 93 | 1016.3 |
| 20260506234505 | 53 | 130 | 8.7 | 16.5 | 0.00 | 0.04 | 0.00 | 92 | 1016.4 |
| 20260506233604 | 54 | 132 | 9.6 | 16.5 | 0.00 | 0.04 | 0.00 | 90 | 1016.5 |
| 20260506232704 | 54 | 129 | 9.6 | 15.6 | 0.00 | 0.04 | 0.00 | 90 | 1016.5 |
| 20260506231805 | 54 | 132 | 8.7 | 18.2 | 0.00 | 0.04 | 0.00 | 89 | 1016.5 |
| 20260506230926 | 54 | 131 | 9.6 | 19.1 | 0.00 | 0.04 | 0.00 | 88 | 1016.4 |
| 20260506230020 | 55 | 131 | 8.7 | 18.2 | 0.00 | 0.04 | 0.00 | 85 | 1016.6 |
| 20260506225404 | 55 | 134 | 8.7 | 17.4 | 0.00 | 0.04 | 0.00 | 84 | 1016.4 |
| 20260506224504 | 55 | 136 | 10.4 | 16.5 | 0.00 | 0.04 | 0.00 | 83 | 1016.5 |
| 20260506223604 | 56 | 139 | 9.6 | 14.8 | 0.00 | 0.04 | 0.00 | 82 | 1016.4 |
| 20260506222705 | 56 | 134 | 9.6 | 14.8 | 0.00 | 0.04 | 0.00 | 81 | 1016.3 |
| 20260506221804 | 56 | 130 | 9.6 | 14.8 | 0.00 | 0.04 | 0.00 | 81 | 1016.5 |
| 20260506220904 | 56 | 131 | 9.6 | 15.6 | 0.00 | 0.04 | 0.00 | 82 | 1016.5 |
| 20260506220005 | 56 | 132 | 10.4 | 14.8 | 0.00 | 0.04 | 0.00 | 82 | 1016.5 |
| 20260506215411 | 56 | 135 | 11.3 | 18.2 | 0.00 | 0.04 | 0.04 | 80 | 1016.5 |
| 20260506214525 | 57 | 133 | 7.8 | 13.0 | 0.00 | 0.04 | 0.04 | 76 | 1016.7 |
| 20260506213604 | 58 | 126 | 7.0 | 13.9 | 0.00 | 0.04 | 0.04 | 74 | 1016.8 |
| 20260506212725 | 58 | 126 | 7.8 | 13.9 | 0.00 | 0.04 | 0.04 | 74 | 1016.6 |
| 20260506211807 | 57 | 120 | 7.8 | 13.9 | 0.00 | 0.04 | 0.04 | 79 | 1016.4 |
| 20260506210926 | 57 | 118 | 8.7 | 13.9 | 0.00 | 0.04 | 0.04 | 80 | 1016.5 |
| 20260506210025 | 57 | 121 | 9.6 | 14.8 | 0.00 | 0.04 | 0.04 | 81 | 1016.5 |
| 20260506205405 | 57 | 121 | 10.4 | 14.8 | 0.01 | 0.04 | 0.04 | 82 | 1016.6 |
| 20260506204504 | 57 | 120 | 8.7 | 13.9 | 0.01 | 0.04 | 0.04 | 84 | 1016.6 |
| 20260506203604 | 57 | 128 | 7.8 | 13.9 | 0.01 | 0.04 | 0.04 | 85 | 1016.5 |
| 20260506202704 | 57 | 131 | 8.7 | 13.9 | 0.01 | 0.04 | 0.04 | 84 | 1016.8 |
| 20260506201826 | 57 | 128 | 8.7 | 14.8 | 0.01 | 0.04 | 0.04 | 83 | 1016.9 |
| 20260506200905 | 57 | 135 | 7.8 | 13.0 | 0.01 | 0.04 | 0.04 | 83 | 1016.9 |
| 20260506200004 | 57 | 134 | 7.0 | 14.8 | 0.00 | 0.04 | 0.04 | 82 | 1016.9 |
| 20260506195405 | 57 | 135 | 7.8 | 14.8 | 0.00 | 0.03 | 0.03 | 82 | 1016.8 |
| 20260506194504 | 57 | 132 | 7.8 | 13.0 | 0.00 | 0.03 | 0.03 | 83 | 1016.9 |
| 20260506193604 | 57 | 133 | 8.7 | 13.9 | 0.00 | 0.03 | 0.03 | 83 | 1016.9 |
| 20260506192704 | 57 | 134 | 7.8 | 13.0 | 0.00 | 0.03 | 0.03 | 84 | 1016.8 |
| 20260506191805 | 57 | 131 | 7.0 | 13.0 | 0.00 | 0.03 | 0.03 | 84 | 1016.6 |
| 20260506190907 | 57 | 139 | 7.8 | 13.0 | 0.00 | 0.03 | 0.03 | 84 | 1016.7 |
| 20260506190004 | 57 | 132 | 7.8 | 12.2 | 0.00 | 0.03 | 0.03 | 83 | 1016.5 |
| 20260506185404 | 57 | 132 | 7.0 | 13.0 | 0.00 | 0.03 | 0.03 | 84 | 1016.7 |
| 20260506184504 | 58 | 133 | 7.0 | 13.0 | 0.00 | 0.03 | 0.03 | 85 | 1016.3 |
| 20260506183607 | 58 | 131 | 7.0 | 11.3 | 0.00 | 0.03 | 0.03 | 84 | 1016.5 |
| 20260506182704 | 58 | 132 | 5.2 | 7.8 | 0.00 | 0.03 | 0.03 | 85 | 1016.4 |
| 20260506181804 | 58 | 127 | 5.2 | 8.7 | 0.00 | 0.03 | 0.03 | 85 | 1016.3 |
| 20260506180904 | 58 | 146 | 4.3 | 9.6 | 0.00 | 0.03 | 0.03 | 84 | 1016.4 |
| 20260506180005 | 58 | 146 | 5.2 | 9.6 | 0.00 | 0.03 | 0.03 | 84 | 1016.4 |
| 20260506175404 | 58 | 144 | 5.2 | 8.7 | 0.00 | 0.03 | 0.03 | 84 | 1016.3 |
| 20260506174504 | 58 | 146 | 6.1 | 11.3 | 0.00 | 0.03 | 0.03 | 83 | 1016.3 |
| 20260506173604 | 58 | 159 | 6.1 | 11.3 | 0.00 | 0.03 | 0.03 | 81 | 1016.2 |
| 20260506172704 | 58 | 147 | 7.0 | 11.3 | 0.00 | 0.03 | 0.03 | 81 | 1016.3 |
| 20260506171806 | 58 | 159 | 8.7 | 14.8 | 0.00 | 0.03 | 0.03 | 81 | 1016.1 |
| 20260506170904 | 58 | 165 | 6.1 | 13.0 | 0.00 | 0.03 | 0.03 | 81 | 1016.3 |
| 20260506170004 | 59 | 166 | 6.1 | 10.4 | 0.00 | 0.03 | 0.03 | 81 | 1016.2 |
| 20260506165405 | 59 | 163 | 7.0 | 13.9 | 0.00 | 0.03 | 0.03 | 80 | 1016.4 |
| 20260506164506 | 59 | 164 | 6.1 | 13.0 | 0.00 | 0.03 | 0.03 | 81 | 1016.4 |
| 20260506163604 | 59 | 157 | 6.1 | 13.9 | 0.00 | 0.03 | 0.03 | 82 | 1016.5 |
| 20260506162704 | 59 | 153 | 8.7 | 14.8 | 0.00 | 0.03 | 0.03 | 81 | 1016.3 |
| 20260506161803 | 59 | 152 | 7.8 | 15.6 | 0.00 | 0.03 | 0.03 | 79 | 1016.2 |
| 20260506160904 | 59 | 157 | 9.6 | 14.8 | 0.00 | 0.03 | 0.03 | 76 | 1016.4 |
| 20260506160007 | 60 | 159 | 7.8 | 13.9 | 0.00 | 0.03 | 0.03 | 77 | 1016.4 |
| 20260506155446 | 60 | 155 | 7.0 | 13.0 | 0.00 | 0.03 | 0.03 | 78 | 1016.4 |
| 20260506154504 | 60 | 162 | 7.8 | 12.2 | 0.00 | 0.03 | 0.03 | 77 | 1016.5 |
| 20260506153603 | 60 | 163 | 7.0 | 11.3 | 0.00 | 0.03 | 0.03 | 76 | 1016.6 |
| 20260506152703 | 61 | 170 | 6.1 | 13.0 | 0.00 | 0.03 | 0.03 | 76 | 1016.2 |
| 20260506151803 | 61 | 156 | 7.8 | 14.8 | 0.00 | 0.03 | 0.03 | 75 | 1016.4 |
| 20260506150904 | 60 | 158 | 7.0 | 14.8 | 0.00 | 0.03 | 0.03 | 76 | 1016.3 |
| 20260506150024 | 60 | 155 | 7.0 | 13.0 | 0.00 | 0.03 | 0.03 | 78 | 1016.2 |
| 20260506145403 | 60 | 148 | 7.8 | 13.0 | 0.00 | 0.03 | 0.03 | 78 | 1016.5 |
| 20260506144504 | 60 | 157 | 7.8 | 13.0 | 0.00 | 0.03 | 0.03 | 74 | 1016.4 |
| 20260506143603 | 60 | 161 | 7.0 | 14.8 | 0.00 | 0.03 | 0.03 | 75 | 1016.6 |
| 20260506142746 | 60 | 177 | 7.0 | 13.9 | 0.00 | 0.03 | 0.03 | 78 | 1016.7 |
| 20260506141804 | 60 | 170 | 7.8 | 13.9 | 0.00 | 0.03 | 0.03 | 78 | 1016.6 |
| 20260506140903 | 61 | 176 | 7.0 | 13.0 | 0.00 | 0.03 | 0.03 | 72 | 1016.6 |
| 20260506140024 | 61 | 163 | 7.8 | 16.5 | 0.00 | 0.03 | 0.03 | 71 | 1016.5 |
| 20260506135404 | 61 | 162 | 8.7 | 16.5 | 0.00 | 0.03 | 0.03 | 72 | 1016.7 |
| 20260506134505 | 61 | 162 | 9.6 | 14.8 | 0.00 | 0.03 | 0.03 | 69 | 1016.7 |
| 20260506133603 | 61 | 167 | 8.7 | 15.6 | 0.00 | 0.03 | 0.03 | 69 | 1016.6 |
| 20260506132705 | 62 | 169 | 6.1 | 15.6 | 0.00 | 0.03 | 0.03 | 68 | 1016.5 |
| 20260506131829 | 62 | 190 | 5.2 | 13.0 | 0.00 | 0.03 | 0.03 | 66 | 1016.9 |
| 20260506130903 | 62 | 180 | 7.0 | 13.0 | 0.00 | 0.03 | 0.03 | 67 | 1016.7 |
| 20260506130005 | 63 | 175 | 6.1 | 11.3 | 0.00 | 0.03 | 0.03 | 66 | 1016.7 |
| 20260506125406 | 63 | 167 | 7.0 | 13.0 | 0.00 | 0.03 | 0.03 | 67 | 1016.8 |
| 20260506124503 | 63 | 176 | 7.0 | 13.0 | 0.00 | 0.03 | 0.03 | 66 | 1016.8 |
| 20260506123625 | 62 | 170 | 7.8 | 14.8 | 0.00 | 0.03 | 0.03 | 66 | 1016.6 |